FW1075 Weather Reports


Display with metric or nautical units.
time (UTC)temp
F
wind
direction
speed
MPH
gust
MPH
rain 1hr
in
rain 24hr
in
rain mn
in
humidity
%
barometer
mb
20260902192144 73 94 2.0 3.0 0.00 0.01 0.01 90 1018.0
20260902191123 73 145 2.0 4.0 0.00 0.01 0.01 87 1017.9
20260902190121 74 114 3.0 7.0 0.00 0.01 0.01 84 1017.9
20260902185142 74 180 3.0 6.0 0.00 0.01 0.01 84 1018.0
20260902184121 74 113 4.0 9.0 0.00 0.01 0.01 84 1017.9
20260902183146 75 112 3.0 5.0 0.00 0.01 0.01 82 1017.9
20260902182127 76 154 2.0 5.0 0.00 0.01 0.01 81 1018.0
20260902181142 75 134 3.0 5.0 0.00 0.01 0.01 81 1018.2
20260902180121 75 96 4.0 6.0 0.00 0.01 0.01 80 1018.2
20260902175121 75 112 3.0 6.0 0.00 0.01 0.01 80 1018.2
20260902174121 74 105 3.0 5.0 0.00 0.01 0.01 82 1018.2
20260902173145 75 129 2.0 4.0 0.00 0.02 0.01 81 1018.5
20260902172122 74 119 2.0 4.0 0.00 0.02 0.01 82 1018.5
20260902171147 74 133 1.0 3.0 0.00 0.02 0.01 82 1018.6
20260902170123 74 128 2.0 4.0 0.00 0.02 0.01 82 1018.6
20260902165142 74 119 1.0 3.0 0.00 0.02 0.01 81 1018.6
20260902164123 75 186 2.0 4.0 0.00 0.02 0.01 80 1018.6
20260902163144 75 159 1.0 4.0 0.00 0.02 0.01 81 1018.6
20260902162121 74 130 1.0 3.0 0.00 0.02 0.01 82 1018.6
20260902161122 73 128 3.0 5.0 0.00 0.02 0.01 82 1018.6
20260902160123 73 124 2.0 3.0 0.00 0.02 0.01 83 1018.6
20260902155125 73 102 3.0 5.0 0.00 0.03 0.01 82 1018.7
20260902154122 73 91 3.0 4.0 0.00 0.05 0.01 83 1018.8
20260902153122 73 99 4.0 6.0 0.00 0.06 0.01 83 1018.8
20260902152125 72 98 3.0 5.0 0.00 0.07 0.01 84 1018.9
20260902151122 72 102 3.0 5.0 0.00 0.08 0.01 84 1018.9
20260902150122 71 99 2.0 4.0 0.00 0.08 0.01 85 1018.9
20260902145122 71 109 2.0 4.0 0.00 0.08 0.01 84 1019.0
20260902144126 71 101 2.0 4.0 0.00 0.10 0.01 85 1019.0
20260902142123 70 75 3.0 4.0 0.00 0.10 0.01 87 1018.9
20260902141120 70 99 2.0 5.0 0.00 0.10 0.01 88 1019.0
20260902140120 69 76 3.0 5.0 0.00 0.10 0.01 88 1019.0
20260902135143 69 99 3.0 6.0 0.00 0.10 0.01 88 1018.6
20260902134127 69 96 3.0 5.0 0.00 0.10 0.01 88 1018.5
20260902134120 69 97 3.0 5.0 0.00 0.10 0.01 88 1018.5
20260902133120 69 89 3.0 5.0 0.00 0.10 0.01 87 1018.2
20260902132120 69 111 4.0 9.0 0.00 0.10 0.01 88 1018.5
20260902131121 69 98 4.0 6.0 0.00 0.10 0.01 90 1018.4
20260902130120 68 99 3.0 5.0 0.00 0.10 0.01 91 1018.4
20260902125120 68 122 3.0 6.0 0.00 0.10 0.01 95 1018.2
20260902124121 67 87 3.0 5.0 0.00 0.10 0.01 97 1018.2
20260902123127 67 77 3.0 4.0 0.00 0.10 0.01 99 1018.2
20260902121145 66 79 3.0 5.0 0.00 0.10 0.01 99 1018.2
20260902120146 66 87 2.0 5.0 0.00 0.10 0.01 99 1018.2
20260902115120 65 68 3.0 6.0 0.00 0.10 0.01 99 1018.2
20260902113121 65 112 3.0 4.0 0.00 0.10 0.01 99 1018.2
20260902112124 65 96 3.0 7.0 0.00 0.10 0.01 99 1018.0
20260902111121 65 48 2.0 4.0 0.00 0.10 0.01 99 1018.2
20260902110151 65 88 3.0 6.0 0.00 0.10 0.01 99 1018.2
20260902105121 65 111 3.0 6.0 0.01 0.10 0.01 99 1018.1
20260902104121 65 91 3.0 6.0 0.01 0.10 0.01 99 1017.8
20260902103120 65 91 3.0 5.0 0.01 0.10 0.01 99 1017.7
20260902102143 66 103 3.0 5.0 0.01 0.10 0.01 99 1017.6
20260902101121 66 104 3.0 6.0 0.01 0.10 0.01 99 1017.4
20260902100122 66 117 3.0 6.0 0.01 0.10 0.01 99 1017.4
20260902095121 66 55 3.0 5.0 0.00 0.09 0.00 99 1017.2
20260902094142 66 64 3.0 6.0 0.00 0.09 0.00 99 1017.2
20260902093121 66 50 2.0 5.0 0.00 0.09 0.00 99 1017.2
20260902092125 67 87 3.0 5.0 0.00 0.09 0.00 99 1017.2
20260902091121 67 26 3.0 5.0 0.00 0.09 0.00 99 1017.2
20260902090121 67 46 2.0 6.0 0.00 0.09 0.00 99 1017.2
20260902085121 67 359 1.0 3.0 0.00 0.09 0.00 99 1017.2
20260902084121 67 83 2.0 3.0 0.00 0.09 0.00 99 1017.1
20260902083121 67 91 2.0 4.0 0.00 0.09 0.00 99 1017.0
20260902082121 67 105 1.0 3.0 0.00 0.10 0.00 99 1016.9
20260902081121 66 251 2.0 4.0 0.00 0.12 0.00 99 1016.8
20260902080126 66 107 2.0 4.0 0.00 0.12 0.00 99 1016.8
20260902075121 66 119 3.0 6.0 0.00 0.13 0.00 99 1016.6
20260902074122 66 104 3.0 5.0 0.00 0.13 0.00 99 1016.2
20260902073122 66 71 2.0 7.0 0.00 0.13 0.00 99 1016.1
20260902072122 66 92 2.0 4.0 0.00 0.13 0.00 99 1016.2
20260902071121 66 108 2.0 3.0 0.00 0.13 0.00 99 1016.5
20260902070125 66 100 2.0 4.0 0.00 0.16 0.00 99 1016.5
20260902065121 66 89 2.0 5.0 0.00 0.18 0.00 99 1016.5
20260902064122 66 100 3.0 6.0 0.00 0.20 0.00 99 1016.4
20260902063143 66 63 2.0 5.0 0.00 0.20 0.00 99 1016.6
20260902062122 66 14 2.0 3.0 0.00 0.20 0.00 99 1016.5
20260902061122 66 101 3.0 6.0 0.00 0.20 0.00 99 1016.6
20260902060121 66 100 3.0 5.0 0.00 0.20 0.00 99 1016.6
20260902055121 66 82 2.0 4.0 0.00 0.21 0.00 99 1016.7
20260902054121 67 86 2.0 4.0 0.00 0.27 0.00 99 1016.8
20260902053141 67 71 3.0 6.0 0.00 0.27 0.00 99 1017.0
20260902052122 67 80 3.0 5.0 0.00 0.31 0.00 99 1017.0
20260902051122 67 24 3.0 5.0 0.00 0.33 0.00 99 1016.7
20260902050121 67 55 3.0 5.0 0.00 0.33 0.00 99 1016.7
20260902045121 67 60 3.0 5.0 0.00 0.33 0.00 99 1016.4
20260902044121 67 69 2.0 5.0 0.00 0.33 0.00 99 1016.5
20260902043121 67 82 2.0 4.0 0.00 0.33 0.00 99 1016.6
20260902042121 67 106 4.0 7.0 0.00 0.33 0.00 99 1016.2
20260902041143 67 100 4.0 10.0 0.00 0.33 0.00 99 1015.9
20260902040121 67 100 5.0 9.0 0.00 0.33 0.00 99 1015.9
20260902035123 67 94 4.0 7.0 0.00 0.33 0.33 99 1015.8
20260902034121 68 119 3.0 5.0 0.00 0.33 0.33 99 1015.6
20260902033121 68 115 3.0 7.0 0.00 0.33 0.33 99 1015.6
20260902032142 68 101 3.0 6.0 0.00 0.33 0.33 99 1015.8
20260902031126 68 80 4.0 6.0 0.00 0.33 0.33 99 1015.7
20260902030121 68 105 3.0 4.0 0.00 0.33 0.33 99 1015.7
20260902025142 68 82 3.0 5.0 0.00 0.33 0.33 99 1015.5
20260902024121 68 44 3.0 7.0 0.00 0.33 0.33 99 1015.2
20260902023142 68 86 4.0 7.0 0.00 0.33 0.33 99 1015.1
20260902022124 68 79 4.0 7.0 0.00 0.33 0.33 99 1014.9
20260902021122 69 83 2.0 9.0 0.00 0.33 0.33 99 1014.8
20260902020122 69 76 5.0 8.0 0.00 0.33 0.33 99 1014.8
20260902015122 69 100 5.0 8.0 0.00 0.33 0.33 99 1014.4
20260902014126 69 99 5.0 9.0 0.00 0.33 0.33 99 1014.2
20260902013122 69 81 5.0 7.0 0.00 0.33 0.33 99 1014.1
20260902012122 70 88 4.0 9.0 0.00 0.33 0.33 99 1013.9
20260902011122 71 86 4.0 6.0 0.00 0.33 0.33 99 1013.5
20260902010143 71 62 3.0 8.0 0.00 0.33 0.33 99 1013.5
20260902002142 76 113 0.0 0.0 0.00 0.33 0.33 99 1013.1
20260902001121 76 113 0.0 0.0 0.00 0.33 0.33 99 1013.1
20260902000121 76 113 0.0 0.0 0.00 0.33 0.33 99 1013.1
20260901235121 76 148 1.0 4.0 0.00 0.33 0.33 99 1013.0
20260901234121 76 11 1.0 4.0 0.00 0.33 0.33 99 1012.8
20260901233122 77 138 2.0 4.0 0.00 0.33 0.33 99 1013.1
20260901232122 77 126 0.0 3.0 0.00 0.33 0.33 99 1012.9
20260901231142 77 101 2.0 4.0 0.00 0.33 0.33 99 1012.7
20260901230121 78 90 0.0 2.0 0.00 0.33 0.33 98 1012.7
20260901225126 78 113 0.0 3.0 0.00 0.33 0.33 98 1012.4
20260901224121 78 93 1.0 3.0 0.00 0.33 0.33 98 1012.2
20260901223121 79 115 1.0 3.0 0.00 0.33 0.33 97 1012.4
20260901222122 79 114 1.0 4.0 0.00 0.33 0.33 96 1012.2
20260901221121 81 68 0.0 5.0 0.00 0.33 0.33 92 1012.2
20260901220122 81 74 0.0 3.0 0.00 0.33 0.33 92 1012.2
20260901215121 81 120 1.0 5.0 0.00 0.33 0.33 92 1012.2
20260901214121 80 100 2.0 5.0 0.00 0.33 0.33 93 1012.2
20260901213143 80 101 2.0 5.0 0.00 0.33 0.33 93 1012.2
20260901212122 81 113 0.0 0.0 0.00 0.33 0.33 93 1012.4
20260901211122 81 103 2.0 5.0 0.00 0.33 0.33 93 1012.2
20260901210122 80 103 1.0 4.0 0.00 0.33 0.33 93 1012.2
20260901205127 82 137 1.0 3.0 0.00 0.33 0.33 91 1012.4
20260901204122 81 130 1.0 3.0 0.00 0.33 0.33 93 1012.4
20260901203122 81 124 1.0 4.0 0.00 0.33 0.33 93 1012.2
20260901202122 83 105 1.0 4.0 0.00 0.33 0.33 91 1012.2
20260901201122 83 254 1.0 3.0 0.00 0.33 0.33 91 1012.1
20260901200125 82 167 2.0 3.0 0.00 0.33 0.33 90 1012.1
20260901195122 83 140 3.0 5.0 0.00 0.33 0.33 91 1012.1
20260901194143 82 93 2.0 4.0 0.00 0.33 0.33 91 1012.4
20260901193122 81 112 2.0 4.0 0.00 0.33 0.33 94 1012.4